Weather History for KNFL - May, 2013

Change the Weather History Date:

Thursday, May 9, 2013

  Actual Average Record
Temperature  
Mean Temperature 62 °F -  
Max Temperature 81 °F 71 °F 89 °F (2012)
Min Temperature 43 °F 41 °F 26 °F (1950)
Degree Days  
Heating Degree Days 4    
Growing Degree Days 12 (Base 50)    
Moisture  
Dew Point 38 °F    
Average Humidity 43    
Maximum Humidity 80    
Minimum Humidity 16    
Precipitation  
Precipitation 0.00 in - - ()
Sea Level Pressure  
Sea Level Pressure 30.03 in    
Wind  
Wind Speed 6 mph (NNW)    
Max Wind Speed 21 mph    
Max Gust Speed 32 mph    
Visibility 10 miles    
Events Rain , Thunderstorm    
Averages and records for this station are not official NWS values.
T = Trace of Precipitation, MM = Missing Value Source: NWS Daily Summary

Daily Weather History Graph

Daily Weather History Graph

Search for Another Location

Airport or City:

Trip Planner

Search our weather history database for the weather conditions in past years. The results will help you decide how hot, cold, wet, or windy it might be!

Date:

Astronomy

May. 09, 2013 Rise Set
Actual Time 5:46 AM PDT 7:56 PM PDT
Civil Twilight 5:16 AM PDT 8:26 PM PDT
Nautical Twilight 4:40 AM PDT 9:03 PM PDT
Astronomical Twilight 4:00 AM PDT 9:43 PM PDT
Moon 5:33 AM PDT (5/9) 7:56 PM PDT (5/9)
Length of Visible Light 15h 09m
Length of Day
14h 10m
Waning Crescent, 0% of the Moon is Illuminated
May 9
Waning Crescent
May 9
New
May 17
First Quarter
May 24
Full
May 31
Last Quarter

Hourly Weather History & Observations

Time (PDT) Temp. Windchill Dew Point Humidity Pressure Visibility Wind Dir Wind Speed Gust Speed Precip Events Conditions
12:56 AM 53.1 °F - 39.0 °F 59% 30.00 in 10.0 mi NW 8.1 mph - N/A   Clear
1:56 AM 51.1 °F - 39.9 °F 66% 30.00 in 10.0 mi SW 4.6 mph - N/A   Clear
2:56 AM 46.9 °F - 39.0 °F 74% 30.00 in 10.0 mi South 5.8 mph - N/A   Clear
3:56 AM 46.0 °F 44.8 °F 37.9 °F 73% 30.00 in 10.0 mi SSW 3.5 mph - N/A   Clear
4:56 AM 45.0 °F 43.5 °F 39.0 °F 80% 30.00 in 10.0 mi SSW 3.5 mph - N/A   Clear
5:56 AM 43.0 °F 39.5 °F 37.0 °F 80% 30.01 in 10.0 mi SSE 5.8 mph - N/A   Clear
6:12 AM 44.6 °F 43.1 °F 37.4 °F 76% 30.11 in 10.0 mi SSE 3.5 mph - N/A   Mostly Cloudy
6:56 AM 50.0 °F - 39.9 °F 68% 30.04 in 10.0 mi Calm Calm - N/A   Scattered Clouds
7:56 AM 57.0 °F - 44.1 °F 62% 30.05 in 10.0 mi Calm Calm - N/A   Mostly Cloudy
8:56 AM 64.0 °F - 43.0 °F 46% 30.05 in 10.0 mi North 6.9 mph - N/A   Overcast
9:56 AM 66.9 °F - 42.1 °F 40% 30.05 in 10.0 mi NE 6.9 mph - N/A   Overcast
10:56 AM 69.1 °F - 39.9 °F 35% 30.04 in 10.0 mi Variable 3.5 mph - N/A   Overcast
11:56 AM 72.0 °F - 37.9 °F 29% 30.04 in 10.0 mi NNW 6.9 mph - N/A   Mostly Cloudy
12:56 PM 75.0 °F - 34.0 °F 22% 30.02 in 10.0 mi Variable 4.6 mph - N/A   Mostly Cloudy
1:56 PM 75.9 °F - 32.0 °F 20% 30.00 in 10.0 mi North 8.1 mph 17.3 mph N/A   Mostly Cloudy
2:56 PM 79.0 °F - 30.9 °F 17% 29.98 in 10.0 mi North 11.5 mph 18.4 mph N/A   Mostly Cloudy
3:56 PM 80.1 °F - 30.9 °F 17% 29.96 in 10.0 mi North 9.2 mph 19.6 mph N/A   Mostly Cloudy
4:56 PM 80.1 °F - 30.0 °F 16% 29.96 in 10.0 mi Variable 4.6 mph - N/A   Mostly Cloudy
5:39 PM 77.0 °F - 33.8 °F 21% 30.05 in 10.0 mi NNE 16.1 mph 23.0 mph 0.00 in Rain , Thunderstorm Light Thunderstorms and Rain
5:56 PM 75.0 °F - 33.1 °F 22% 29.96 in 10.0 mi NNW 12.7 mph 21.9 mph 0.00 in Rain , Thunderstorm Light Thunderstorms and Rain
6:19 PM 73.4 °F - 37.4 °F 27% 30.06 in 10.0 mi NNW 8.1 mph - 0.00 in   Mostly Cloudy
6:56 PM 73.0 °F - 37.0 °F 27% 29.96 in 10.0 mi WNW 8.1 mph - 0.00 in   Mostly Cloudy
7:56 PM 72.0 °F - 37.0 °F 28% 29.99 in 10.0 mi Variable 3.5 mph - N/A   Overcast
8:04 PM 71.6 °F - 35.6 °F 27% 30.09 in 10.0 mi Variable 6.9 mph - N/A Thunderstorm Thunderstorm
8:09 PM 71.6 °F - 35.6 °F 27% 30.10 in 10.0 mi NNE 20.7 mph 32.2 mph 0.00 in Rain , Thunderstorm Light Thunderstorms and Rain
8:29 PM 69.8 °F - 41.0 °F 35% 30.11 in 10.0 mi ESE 10.4 mph - 0.00 in Thunderstorm Thunderstorm
8:42 PM 68.0 °F - 39.2 °F 35% 30.10 in 10.0 mi SSE 11.5 mph - 0.00 in   Mostly Cloudy
8:56 PM 66.9 °F - 39.0 °F 36% 30.01 in 10.0 mi SE 13.8 mph - 0.00 in   Mostly Cloudy
9:56 PM 64.9 °F - 43.0 °F 45% 30.05 in 10.0 mi West 5.8 mph - N/A   Mostly Cloudy
10:56 PM 62.1 °F - 44.1 °F 52% 30.05 in 10.0 mi Calm Calm - N/A   Clear
11:56 PM 59.0 °F - 44.1 °F 58% 30.06 in 10.0 mi Calm Calm - N/A   Clear